CSN6904 ZSPD-ZHHH

Flight info

Callsign CSN6904
Flight time 2h 8m
Altitude 36100
Route ZSPD/17L DCT POMOK G330 UNTAN G345 OLRIS R343 MADUK W51 LEGIV W164 ADGOL W50 XSH XSH4T ZHHH/23R
Aircraft A320/M-SDE3FGHIRWY/LB1

Departure

Time 2026-05-06 09:57
Airport Shanghai Pudong International Airport (ZSPD)

Arrival

Time 2026-05-06 12:05
Airport Wuhan Tianhe International Airport (ZHHH)
Time Latitude Longitude Altitude Speed Heading
2026-05-06 09:25 31.14069 121.81006 23 ft 0 kts 72°
2026-05-06 09:42 31.14069 121.81004 23 ft 2 kts 72°
2026-05-06 09:42 31.14060 121.80976 23 ft 4 kts 65°
2026-05-06 09:42 31.14047 121.80949 24 ft 4 kts 47°
2026-05-06 09:43 31.14028 121.80934 24 ft 4 kts 353°
2026-05-06 09:43 31.14023 121.80935 23 ft 0 kts 342°
2026-05-06 09:48 31.14024 121.80935 24 ft 1 kts 342°
2026-05-06 09:48 31.14042 121.80928 24 ft 4 kts 342°
2026-05-06 09:49 31.14054 121.80923 25 ft 0 kts 342°
2026-05-06 09:49 31.14062 121.80920 23 ft 3 kts 342°
2026-05-06 09:49 31.14089 121.80910 23 ft 5 kts 340°
2026-05-06 09:49 31.14113 121.80870 24 ft 7 kts 307°
2026-05-06 09:50 31.14162 121.80852 23 ft 9 kts 346°
2026-05-06 09:50 31.14222 121.80820 23 ft 11 kts 311°
2026-05-06 09:50 31.14233 121.80728 23 ft 13 kts 259°
2026-05-06 09:50 31.14204 121.80618 23 ft 15 kts 251°
2026-05-06 09:51 31.14167 121.80493 23 ft 18 kts 256°
2026-05-06 09:51 31.14129 121.80346 23 ft 20 kts 258°
2026-05-06 09:51 31.14083 121.80192 23 ft 21 kts 252°
2026-05-06 09:51 31.14036 121.80022 23 ft 23 kts 252°
2026-05-06 09:52 31.13982 121.79833 23 ft 21 kts 251°
2026-05-06 09:52 31.14035 121.79713 23 ft 20 kts 340°
2026-05-06 09:52 31.14214 121.79644 23 ft 50 kts 343°
2026-05-06 09:52 31.14606 121.79498 23 ft 61 kts 342°
2026-05-06 09:53 31.15013 121.79348 24 ft 61 kts 341°
2026-05-06 09:53 31.15420 121.79191 23 ft 62 kts 342°
2026-05-06 09:53 31.15830 121.79039 23 ft 62 kts 340°
2026-05-06 09:53 31.16097 121.78936 23 ft 34 kts 341°
2026-05-06 09:54 31.16169 121.78900 23 ft 9 kts 315°
2026-05-06 09:54 31.16168 121.78824 24 ft 11 kts 252°
2026-05-06 09:54 31.16140 121.78730 23 ft 14 kts 250°
2026-05-06 09:54 31.16086 121.78634 24 ft 16 kts 202°
2026-05-06 09:55 31.16007 121.78647 22 ft 0 kts 162°
2026-05-06 09:55 31.15946 121.78670 22 ft 36 kts 161°
2026-05-06 09:56 31.15479 121.78856 22 ft 101 kts 162°
2026-05-06 09:56 31.14654 121.79165 24 ft 145 kts 162°
2026-05-06 09:56 31.13592 121.79556 222 ft 168 kts 162°
2026-05-06 09:56 31.12406 121.79974 539 ft 194 kts 160°
2026-05-06 09:57 31.10997 121.80509 746 ft 230 kts 161°
2026-05-06 09:57 31.09435 121.81106 943 ft 238 kts 162°
2026-05-06 09:57 31.07855 121.81707 1367 ft 241 kts 162°
2026-05-06 09:57 31.06216 121.82103 2412 ft 245 kts 182°
2026-05-06 09:58 31.04627 121.81409 3341 ft 257 kts 217°
2026-05-06 09:58 31.03635 121.79663 4322 ft 268 kts 252°
2026-05-06 09:58 31.03667 121.77487 5311 ft 276 kts 287°
2026-05-06 09:58 31.04646 121.75547 6326 ft 281 kts 306°
2026-05-06 09:59 31.05977 121.73871 7309 ft 282 kts 312°
2026-05-06 09:59 31.07364 121.72253 8251 ft 283 kts 312°
2026-05-06 09:59 31.08714 121.70579 9150 ft 284 kts 310°
2026-05-06 09:59 31.10007 121.68817 9982 ft 287 kts 308°
2026-05-06 10:00 31.11273 121.66949 10452 ft 303 kts 306°
2026-05-06 10:00 31.12582 121.64902 10693 ft 325 kts 305°
2026-05-06 10:00 31.13924 121.62732 11264 ft 333 kts 304°
2026-05-06 10:00 31.15279 121.60512 11922 ft 337 kts 304°
2026-05-06 10:01 31.16640 121.58272 12646 ft 340 kts 304°
2026-05-06 10:01 31.18014 121.56006 13307 ft 344 kts 304°
2026-05-06 10:01 31.19404 121.53724 13965 ft 346 kts 304°
2026-05-06 10:01 31.20811 121.51419 14544 ft 350 kts 304°
2026-05-06 10:02 31.22214 121.49125 15112 ft 353 kts 304°
2026-05-06 10:02 31.23645 121.46784 15709 ft 356 kts 303°
2026-05-06 10:02 31.25089 121.44422 16315 ft 359 kts 303°
2026-05-06 10:02 31.26543 121.42041 16928 ft 361 kts 303°
2026-05-06 10:03 31.28009 121.39641 17519 ft 364 kts 303°
2026-05-06 10:03 31.29481 121.37225 18128 ft 366 kts 303°
2026-05-06 10:03 31.30961 121.34792 18654 ft 369 kts 303°
2026-05-06 10:03 31.32454 121.32339 19179 ft 371 kts 303°
2026-05-06 10:04 31.33954 121.29875 19708 ft 373 kts 303°
2026-05-06 10:04 31.35462 121.27395 20241 ft 375 kts 303°
2026-05-06 10:04 31.36976 121.24899 20761 ft 378 kts 303°
2026-05-06 10:04 31.38503 121.22383 21292 ft 380 kts 303°
2026-05-06 10:05 31.40035 121.19860 21815 ft 381 kts 303°
2026-05-06 10:05 31.41576 121.17323 22338 ft 383 kts 303°
2026-05-06 10:05 31.43132 121.14777 22838 ft 386 kts 304°
2026-05-06 10:05 31.44965 121.12448 23318 ft 393 kts 315°
2026-05-06 10:06 31.47164 121.10586 23748 ft 400 kts 326°
2026-05-06 10:06 31.49683 121.09155 24156 ft 404 kts 331°
2026-05-06 10:06 31.52251 121.07791 24573 ft 406 kts 331°
2026-05-06 10:06 31.54832 121.06415 24979 ft 408 kts 331°
2026-05-06 10:07 31.57419 121.05029 25397 ft 410 kts 331°
2026-05-06 10:07 31.60019 121.03633 25804 ft 412 kts 331°
2026-05-06 10:07 31.62629 121.02232 26215 ft 414 kts 331°
2026-05-06 10:07 31.65259 121.00824 26615 ft 416 kts 331°
2026-05-06 10:08 31.67900 120.99412 27007 ft 418 kts 331°
2026-05-06 10:08 31.70554 120.97991 27411 ft 421 kts 331°
2026-05-06 10:08 31.73224 120.96560 27793 ft 423 kts 330°
2026-05-06 10:08 31.75910 120.95115 28183 ft 426 kts 330°
2026-05-06 10:09 31.78616 120.93665 28558 ft 429 kts 330°
2026-05-06 10:09 31.81305 120.92232 28946 ft 432 kts 331°
2026-05-06 10:09 31.84048 120.90774 29343 ft 434 kts 331°
2026-05-06 10:09 31.86805 120.89306 29739 ft 436 kts 331°
2026-05-06 10:10 31.89580 120.87829 30116 ft 439 kts 331°
2026-05-06 10:10 31.92367 120.86345 30438 ft 441 kts 331°
2026-05-06 10:10 31.95166 120.84852 30765 ft 443 kts 331°
2026-05-06 10:10 31.97981 120.83346 31102 ft 445 kts 332°
2026-05-06 10:11 32.00811 120.81832 31414 ft 448 kts 332°
2026-05-06 10:11 32.03641 120.80316 31889 ft 446 kts 332°
2026-05-06 10:11 32.06461 120.78807 32380 ft 444 kts 332°
2026-05-06 10:11 32.09269 120.77300 32870 ft 442 kts 331°
2026-05-06 10:12 32.11852 120.75477 33328 ft 437 kts 320°
2026-05-06 10:12 32.14057 120.73048 33788 ft 432 kts 309°
2026-05-06 10:12 32.15768 120.70152 34204 ft 430 kts 297°
2026-05-06 10:12 32.16930 120.66918 34620 ft 428 kts 286°
2026-05-06 10:13 32.17504 120.63483 35047 ft 427 kts 276°
2026-05-06 10:13 32.17787 120.60004 35459 ft 425 kts 276°
2026-05-06 10:13 32.18071 120.56539 35810 ft 424 kts 276°
2026-05-06 10:13 32.18360 120.53079 35903 ft 423 kts 276°
2026-05-06 10:14 32.18940 120.46192 35917 ft 421 kts 276°
2026-05-06 10:14 32.19508 120.39359 35917 ft 421 kts 276°
2026-05-06 10:15 32.20008 120.32475 35916 ft 421 kts 270°
2026-05-06 10:15 32.18985 120.25684 35912 ft 425 kts 251°
2026-05-06 10:16 32.16291 120.19442 35912 ft 427 kts 244°
2026-05-06 10:16 32.13481 120.13258 35902 ft 428 kts 244°
2026-05-06 10:17 32.10697 120.07105 35911 ft 428 kts 244°
2026-05-06 10:17 32.07880 120.00919 35911 ft 428 kts 244°
2026-05-06 10:18 32.05049 119.94736 35909 ft 428 kts 244°
2026-05-06 10:18 32.02228 119.88554 35907 ft 428 kts 244°
2026-05-06 10:19 31.99398 119.82376 35908 ft 428 kts 244°
2026-05-06 10:19 31.96557 119.76198 35904 ft 429 kts 244°
2026-05-06 10:20 31.93732 119.70056 35904 ft 429 kts 244°
2026-05-06 10:20 31.91007 119.63808 35901 ft 429 kts 246°
2026-05-06 10:21 31.88369 119.57511 35901 ft 429 kts 246°
2026-05-06 10:21 31.85678 119.51152 35903 ft 443 kts 245°
2026-05-06 10:22 31.82926 119.44770 35896 ft 429 kts 245°
2026-05-06 10:22 31.80238 119.38575 35895 ft 423 kts 246°
2026-05-06 10:23 31.77570 119.32465 35895 ft 423 kts 245°
2026-05-06 10:23 31.74869 119.26330 35895 ft 423 kts 245°
2026-05-06 10:24 31.72167 119.20209 35893 ft 421 kts 245°
2026-05-06 10:24 31.69476 119.14114 35893 ft 420 kts 245°
2026-05-06 10:25 31.66809 119.08013 35887 ft 419 kts 249°
2026-05-06 10:25 31.65411 119.01469 35870 ft 413 kts 268°
2026-05-06 10:26 31.65700 118.94749 35869 ft 413 kts 275°
2026-05-06 10:26 31.66214 118.88083 35865 ft 413 kts 275°
2026-05-06 10:27 31.66731 118.81368 35865 ft 413 kts 275°
2026-05-06 10:27 31.67228 118.74654 35867 ft 413 kts 275°
2026-05-06 10:28 31.67724 118.67939 35870 ft 413 kts 275°
2026-05-06 10:28 31.68221 118.61230 35872 ft 413 kts 275°
2026-05-06 10:29 31.68709 118.54516 35873 ft 413 kts 275°
2026-05-06 10:29 31.69187 118.47802 35875 ft 413 kts 275°
2026-05-06 10:30 31.69661 118.41134 35876 ft 413 kts 275°
2026-05-06 10:30 31.70139 118.34423 35877 ft 412 kts 275°
2026-05-06 10:31 31.70610 118.27722 35873 ft 412 kts 275°
2026-05-06 10:31 31.71073 118.21022 35874 ft 412 kts 275°
2026-05-06 10:32 31.71540 118.14321 35874 ft 412 kts 275°
2026-05-06 10:32 31.71241 118.07631 35873 ft 413 kts 258°
2026-05-06 10:33 31.69891 118.01148 35869 ft 409 kts 258°
2026-05-06 10:33 31.68552 117.94666 35871 ft 408 kts 258°
2026-05-06 10:34 31.67219 117.88190 35871 ft 408 kts 258°
2026-05-06 10:34 31.65885 117.81716 35870 ft 408 kts 258°
2026-05-06 10:35 31.64541 117.75246 35871 ft 408 kts 258°
2026-05-06 10:35 31.63192 117.68780 35868 ft 408 kts 258°
2026-05-06 10:36 31.61840 117.62321 35868 ft 408 kts 258°
2026-05-06 10:36 31.60499 117.55860 35863 ft 407 kts 259°
2026-05-06 10:37 31.59326 117.49411 35865 ft 407 kts 261°
2026-05-06 10:37 31.58222 117.42908 35862 ft 406 kts 261°
2026-05-06 10:38 31.57094 117.36430 35863 ft 405 kts 260°
2026-05-06 10:38 31.55936 117.29964 35863 ft 405 kts 260°
2026-05-06 10:39 31.54781 117.23501 35863 ft 405 kts 260°
2026-05-06 10:39 31.53644 117.17039 35865 ft 405 kts 260°
2026-05-06 10:40 31.52515 117.10641 35857 ft 403 kts 259°
2026-05-06 10:40 31.51370 117.04224 35857 ft 403 kts 259°
2026-05-06 10:41 31.50220 116.97803 35857 ft 402 kts 259°
2026-05-06 10:41 31.49066 116.91387 35857 ft 402 kts 259°
2026-05-06 10:42 31.47973 116.86097 35853 ft 403 kts 251°
2026-05-06 10:42 31.46287 116.82158 35855 ft 408 kts 238°
2026-05-06 10:42 31.44606 116.79529 35860 ft 409 kts 236°
2026-05-06 10:43 31.41140 116.74239 35860 ft 409 kts 236°
2026-05-06 10:44 31.35950 116.66303 35868 ft 409 kts 236°
2026-05-06 10:44 31.32487 116.61021 35862 ft 409 kts 236°
2026-05-06 10:45 31.29015 116.55742 35871 ft 410 kts 235°
2026-05-06 10:45 31.25540 116.50448 35872 ft 411 kts 235°
2026-05-06 10:46 31.22078 116.45178 35885 ft 411 kts 235°
2026-05-06 10:46 31.18594 116.39882 35887 ft 411 kts 235°
2026-05-06 10:47 31.15104 116.34589 35897 ft 411 kts 235°
2026-05-06 10:47 31.11609 116.29304 35895 ft 411 kts 235°
2026-05-06 10:48 31.08112 116.24020 35889 ft 411 kts 235°
2026-05-06 10:48 31.04613 116.18728 35899 ft 413 kts 235°
2026-05-06 10:49 31.01692 116.14316 35899 ft 414 kts 234°
2026-05-06 10:49 30.97599 116.08164 35887 ft 413 kts 234°
2026-05-06 10:50 30.94074 116.02867 35889 ft 413 kts 234°
2026-05-06 10:50 30.90543 115.97553 35885 ft 418 kts 235°
2026-05-06 10:51 30.87573 115.93095 35885 ft 420 kts 235°
2026-05-06 10:51 30.83989 115.87716 35879 ft 421 kts 235°
2026-05-06 10:52 30.80413 115.82318 35881 ft 421 kts 235°
2026-05-06 10:52 30.76843 115.76911 35874 ft 421 kts 235°
2026-05-06 10:53 30.73280 115.71507 35850 ft 421 kts 236°
2026-05-06 10:53 30.69177 115.65281 35864 ft 421 kts 236°
2026-05-06 10:54 30.65609 115.59876 35854 ft 421 kts 236°
2026-05-06 10:54 30.62638 115.55395 35854 ft 422 kts 236°
2026-05-06 10:55 30.59050 115.50001 35845 ft 422 kts 235°
2026-05-06 10:55 30.55461 115.44615 35843 ft 422 kts 235°
2026-05-06 10:56 30.51873 115.39226 35842 ft 423 kts 235°
2026-05-06 10:56 30.48281 115.33828 35830 ft 422 kts 236°
2026-05-06 10:56 30.46821 115.30912 35824 ft 417 kts 251°
2026-05-06 10:57 30.46125 115.27675 35829 ft 414 kts 266°
2026-05-06 10:57 30.46243 115.24353 35822 ft 414 kts 281°
2026-05-06 10:57 30.47163 115.21192 35822 ft 417 kts 296°
2026-05-06 10:58 30.50501 115.15703 35815 ft 421 kts 304°
2026-05-06 10:58 30.54003 115.10255 35813 ft 421 kts 304°
2026-05-06 10:59 30.57485 115.04784 35814 ft 421 kts 303°
2026-05-06 10:59 30.60916 114.99273 35810 ft 421 kts 301°
2026-05-06 11:00 30.63868 114.93437 35809 ft 419 kts 297°
2026-05-06 11:00 30.66795 114.87593 35812 ft 418 kts 298°
2026-05-06 11:01 30.69722 114.81778 35812 ft 417 kts 298°
2026-05-06 11:01 30.72617 114.75988 35805 ft 417 kts 297°
2026-05-06 11:02 30.75519 114.70147 35805 ft 417 kts 297°
2026-05-06 11:02 30.78418 114.64301 35805 ft 417 kts 297°
2026-05-06 11:03 30.81325 114.58463 35800 ft 417 kts 297°
2026-05-06 11:03 30.84315 114.52676 35796 ft 420 kts 307°
2026-05-06 11:03 30.86544 114.50463 35794 ft 429 kts 327°
2026-05-06 11:04 30.89399 114.49348 35794 ft 442 kts 348°
2026-05-06 11:04 30.92475 114.49524 35793 ft 450 kts
2026-05-06 11:04 30.95346 114.50924 35801 ft 459 kts 24°
2026-05-06 11:04 30.98205 114.52535 35799 ft 451 kts 11°
2026-05-06 11:05 31.01243 114.53015 35799 ft 434 kts 349°
2026-05-06 11:05 31.04101 114.52188 35799 ft 418 kts 328°
2026-05-06 11:05 31.06386 114.50220 35803 ft 404 kts 306°
2026-05-06 11:05 31.07776 114.47441 35803 ft 396 kts 285°
2026-05-06 11:06 31.08080 114.44283 35805 ft 394 kts 263°
2026-05-06 11:06 31.07255 114.41242 35805 ft 399 kts 242°
2026-05-06 11:06 31.05410 114.38786 35796 ft 411 kts 220°
2026-05-06 11:06 31.02856 114.37204 35797 ft 421 kts 208°
2026-05-06 11:07 31.00158 114.35849 35784 ft 423 kts 208°
2026-05-06 11:07 30.94769 114.33143 35797 ft 425 kts 208°
2026-05-06 11:08 30.89331 114.30415 35785 ft 425 kts 208°
2026-05-06 11:08 30.83895 114.27688 35783 ft 426 kts 208°
2026-05-06 11:09 30.78867 114.24275 35784 ft 415 kts 225°
2026-05-06 11:09 30.73962 114.20718 35784 ft 432 kts 196°
2026-05-06 11:09 30.70967 114.20572 35783 ft 446 kts 175°
2026-05-06 11:10 30.67994 114.21728 35781 ft 460 kts 154°
2026-05-06 11:10 30.65489 114.24082 35783 ft 471 kts 132°
2026-05-06 11:10 30.63796 114.27353 35784 ft 478 kts 111°
2026-05-06 11:10 30.63150 114.31134 35785 ft 480 kts 89°
2026-05-06 11:11 30.63638 114.34941 35791 ft 478 kts 68°
2026-05-06 11:11 30.65192 114.38298 35789 ft 470 kts 46°
2026-05-06 11:11 30.67595 114.40777 35793 ft 458 kts 25°
2026-05-06 11:12 30.73365 114.43789 35795 ft 455 kts 18°
2026-05-06 11:12 30.79147 114.46660 35790 ft 451 kts 18°
2026-05-06 11:12 30.81988 114.48079 35791 ft 437 kts 18°
2026-05-06 11:13 30.84735 114.49461 35793 ft 423 kts 17°
2026-05-06 11:13 30.89784 114.52649 35793 ft 417 kts 41°
2026-05-06 11:13 30.91484 114.55404 35801 ft 425 kts 65°
2026-05-06 11:14 30.92173 114.58741 35802 ft 428 kts 89°
2026-05-06 11:14 30.91735 114.62145 35802 ft 426 kts 114°
2026-05-06 11:14 30.90248 114.65064 35805 ft 417 kts 139°
2026-05-06 11:14 30.87978 114.67037 35805 ft 403 kts 163°
2026-05-06 11:15 30.85329 114.67781 35810 ft 387 kts 185°
2026-05-06 11:15 30.79986 114.67752 35808 ft 387 kts 187°
2026-05-06 11:15 30.77320 114.67501 35805 ft 381 kts 198°
2026-05-06 11:16 30.74852 114.66562 35803 ft 369 kts 214°
2026-05-06 11:16 30.70799 114.63072 35799 ft 362 kts 226°
2026-05-06 11:17 30.67162 114.59064 35792 ft 357 kts 237°
2026-05-06 11:17 30.65882 114.56624 35796 ft 353 kts 249°
2026-05-06 11:17 30.65084 114.53952 35797 ft 350 kts 259°
2026-05-06 11:17 30.64790 114.51158 35796 ft 348 kts 271°
2026-05-06 11:18 30.65043 114.48366 35793 ft 349 kts 283°
2026-05-06 11:18 30.65851 114.45709 35799 ft 351 kts 295°
2026-05-06 11:18 30.67195 114.43326 35793 ft 356 kts 308°
2026-05-06 11:18 30.69014 114.41353 35794 ft 362 kts 320°
2026-05-06 11:19 30.71227 114.39914 35797 ft 370 kts 333°
2026-05-06 11:19 30.73695 114.39127 35795 ft 379 kts 347°
2026-05-06 11:19 30.76357 114.39071 35806 ft 389 kts
2026-05-06 11:19 30.79016 114.39839 35792 ft 400 kts 17°
2026-05-06 11:20 30.81468 114.41432 35798 ft 409 kts 30°
2026-05-06 11:20 30.85952 114.45590 35797 ft 414 kts 37°
2026-05-06 11:20 30.88041 114.47913 35788 ft 419 kts 48°
2026-05-06 11:21 30.89534 114.50841 35795 ft 425 kts 67°
2026-05-06 11:21 30.90273 114.54178 35803 ft 429 kts 84°
2026-05-06 11:21 30.90215 114.57636 35802 ft 428 kts 102°
2026-05-06 11:21 30.89310 114.60914 35802 ft 424 kts 121°
2026-05-06 11:22 30.87622 114.63674 35798 ft 416 kts 140°
2026-05-06 11:22 30.85357 114.65687 35805 ft 406 kts 158°
2026-05-06 11:22 30.82798 114.66834 35805 ft 395 kts 174°
2026-05-06 11:22 30.80108 114.67112 35805 ft 384 kts 191°
2026-05-06 11:23 30.77526 114.66556 35808 ft 373 kts 205°
2026-05-06 11:23 30.75222 114.65272 35808 ft 364 kts 219°
2026-05-06 11:23 30.73174 114.63563 35800 ft 362 kts 223°
2026-05-06 11:24 30.69355 114.59777 35797 ft 361 kts 226°
2026-05-06 11:24 30.67665 114.57658 35796 ft 355 kts 239°
2026-05-06 11:24 30.66498 114.55157 35798 ft 351 kts 251°
2026-05-06 11:24 30.65848 114.52447 35801 ft 348 kts 263°
2026-05-06 11:25 30.65749 114.49648 35796 ft 347 kts 275°
2026-05-06 11:25 30.66232 114.46903 35796 ft 349 kts 288°
2026-05-06 11:25 30.67293 114.44360 35801 ft 352 kts 301°
2026-05-06 11:25 30.68882 114.42177 35799 ft 358 kts 314°
2026-05-06 11:26 30.70929 114.40496 35791 ft 366 kts 328°
2026-05-06 11:26 30.73300 114.39464 35792 ft 375 kts 342°
2026-05-06 11:26 30.75922 114.39166 35807 ft 385 kts 358°
2026-05-06 11:26 30.78592 114.39717 35793 ft 397 kts 14°
2026-05-06 11:27 30.81098 114.41143 35797 ft 408 kts 30°
2026-05-06 11:27 30.85598 114.45246 35797 ft 414 kts 36°
2026-05-06 11:28 30.89338 114.50329 35797 ft 423 kts 64°
2026-05-06 11:28 30.90214 114.53609 35800 ft 427 kts 81°
2026-05-06 11:28 30.90296 114.57063 35799 ft 428 kts 99°
2026-05-06 11:28 30.89520 114.60377 35799 ft 424 kts 118°
2026-05-06 11:29 30.87941 114.63227 35801 ft 416 kts 137°
2026-05-06 11:29 30.85756 114.65362 35808 ft 407 kts 155°
2026-05-06 11:29 30.83203 114.66655 35808 ft 396 kts 172°
2026-05-06 11:29 30.80556 114.67063 35808 ft 385 kts 188°
2026-05-06 11:30 30.77952 114.66641 35808 ft 374 kts 203°
2026-05-06 11:30 30.75600 114.65473 35808 ft 364 kts 217°
2026-05-06 11:30 30.73525 114.63807 35801 ft 361 kts 222°
2026-05-06 11:31 30.69693 114.60062 35793 ft 360 kts 226°
2026-05-06 11:31 30.67945 114.58004 35794 ft 355 kts 237°
2026-05-06 11:31 30.66701 114.55554 35798 ft 351 kts 250°
2026-05-06 11:31 30.65969 114.52872 35798 ft 348 kts 261°
2026-05-06 11:32 30.65775 114.50084 35796 ft 347 kts 273°
2026-05-06 11:32 30.66157 114.47325 35798 ft 348 kts 286°
2026-05-06 11:32 30.67121 114.44743 35800 ft 351 kts 299°
2026-05-06 11:32 30.68603 114.42522 35799 ft 356 kts 312°
2026-05-06 11:33 30.70574 114.40745 35797 ft 364 kts 326°
2026-05-06 11:33 30.72924 114.39582 35792 ft 373 kts 340°
2026-05-06 11:33 30.75520 114.39163 35807 ft 383 kts 355°
2026-05-06 11:33 30.78193 114.39581 35793 ft 395 kts 11°
2026-05-06 11:34 30.80732 114.40883 35798 ft 406 kts 28°
2026-05-06 11:34 30.85268 114.44916 35797 ft 413 kts 36°
2026-05-06 11:35 30.89139 114.49856 35795 ft 422 kts 61°
2026-05-06 11:35 30.90124 114.53083 35803 ft 426 kts 79°
2026-05-06 11:35 30.90326 114.56475 35802 ft 427 kts 96°
2026-05-06 11:35 30.89693 114.59833 35802 ft 424 kts 115°
2026-05-06 11:36 30.88250 114.62781 35799 ft 417 kts 134°
2026-05-06 11:36 30.86159 114.65045 35808 ft 407 kts 152°
2026-05-06 11:36 30.83658 114.66479 35808 ft 396 kts 169°
2026-05-06 11:36 30.80989 114.67029 35808 ft 385 kts 186°
2026-05-06 11:37 30.78367 114.66731 35804 ft 375 kts 201°
2026-05-06 11:37 30.75969 114.65675 35805 ft 365 kts 215°
2026-05-06 11:37 30.73868 114.64057 35807 ft 361 kts 222°
2026-05-06 11:38 30.70046 114.60370 35792 ft 359 kts 226°
2026-05-06 11:38 30.66902 114.55995 35807 ft 350 kts 248°
2026-05-06 11:38 30.66082 114.53349 35801 ft 347 kts 259°
2026-05-06 11:39 30.65793 114.50576 35795 ft 346 kts 271°
2026-05-06 11:39 30.66073 114.47805 35796 ft 347 kts 284°
2026-05-06 11:39 30.66935 114.45189 35800 ft 350 kts 297°
2026-05-06 11:39 30.68347 114.42869 35794 ft 355 kts 310°
2026-05-06 11:40 30.70240 114.41004 35794 ft 362 kts 323°
2026-05-06 11:40 30.72530 114.39731 35795 ft 371 kts 338°
2026-05-06 11:40 30.75096 114.39181 35796 ft 381 kts 353°
2026-05-06 11:40 30.77729 114.39443 35797 ft 392 kts
2026-05-06 11:41 30.80310 114.40585 35796 ft 404 kts 25°
2026-05-06 11:41 30.84875 114.44535 35800 ft 412 kts 36°
2026-05-06 11:42 30.88877 114.49333 35793 ft 421 kts 58°
2026-05-06 11:42 30.89993 114.52490 35803 ft 425 kts 76°
2026-05-06 11:42 30.90338 114.55907 35802 ft 426 kts 93°
2026-05-06 11:42 30.89850 114.59292 35802 ft 424 kts 112°
2026-05-06 11:43 30.88537 114.62326 35802 ft 417 kts 131°
2026-05-06 11:43 30.86542 114.64706 35808 ft 408 kts 149°
2026-05-06 11:43 30.84131 114.66256 35808 ft 397 kts 167°
2026-05-06 11:44 30.78843 114.66821 35808 ft 375 kts 198°
2026-05-06 11:44 30.76399 114.65900 35808 ft 366 kts 212°
2026-05-06 11:44 30.72283 114.62581 35799 ft 359 kts 224°
2026-05-06 11:45 30.68562 114.58735 35796 ft 357 kts 232°
2026-05-06 11:45 30.67130 114.56430 35799 ft 350 kts 245°
2026-05-06 11:45 30.66216 114.53825 35797 ft 347 kts 257°
2026-05-06 11:46 30.65828 114.51073 35795 ft 346 kts 269°
2026-05-06 11:46 30.65999 114.48299 35796 ft 346 kts 281°
2026-05-06 11:46 30.66736 114.45678 35797 ft 348 kts 294°
2026-05-06 11:46 30.68040 114.43293 35799 ft 353 kts 307°
2026-05-06 11:47 30.69840 114.41329 35799 ft 360 kts 320°
2026-05-06 11:47 30.72055 114.39928 35794 ft 368 kts 335°
2026-05-06 11:47 30.74569 114.39223 35795 ft 378 kts 349°
2026-05-06 11:47 30.77229 114.39325 35801 ft 389 kts
2026-05-06 11:48 30.79841 114.40301 35793 ft 401 kts 22°
2026-05-06 11:48 30.82212 114.42067 35799 ft 409 kts 32°
2026-05-06 11:48 30.86630 114.46297 35797 ft 413 kts 37°
2026-05-06 11:49 30.88582 114.48767 35792 ft 419 kts 54°
2026-05-06 11:49 30.89839 114.51835 35803 ft 424 kts 72°
2026-05-06 11:49 30.90338 114.55216 35802 ft 425 kts 90°
2026-05-06 11:49 30.90021 114.58578 35801 ft 424 kts 108°
2026-05-06 11:50 30.88871 114.61695 35802 ft 418 kts 127°
2026-05-06 11:50 30.87001 114.64223 35808 ft 409 kts 146°
2026-05-06 11:50 30.84638 114.65960 35808 ft 398 kts 163°
2026-05-06 11:50 30.82019 114.66842 35808 ft 387 kts 179°
2026-05-06 11:51 30.79370 114.66867 35808 ft 376 kts 195°
2026-05-06 11:51 30.76880 114.66100 35808 ft 367 kts 209°
2026-05-06 11:51 30.74693 114.64658 35811 ft 360 kts 220°
2026-05-06 11:51 30.72698 114.62909 35799 ft 358 kts 224°
2026-05-06 11:52 30.68957 114.59106 35797 ft 357 kts 229°
2026-05-06 11:52 30.67414 114.56890 35799 ft 351 kts 243°
2026-05-06 11:52 30.66405 114.54378 35800 ft 347 kts 255°
2026-05-06 11:53 30.65894 114.51655 35800 ft 345 kts 266°
2026-05-06 11:53 30.65934 114.48879 35796 ft 345 kts 278°
2026-05-06 11:53 30.66558 114.46190 35800 ft 347 kts 291°
2026-05-06 11:53 30.67749 114.43739 35794 ft 351 kts 304°
2026-05-06 11:54 30.69455 114.41689 35797 ft 357 kts 317°
2026-05-06 11:54 30.71133 114.40212 34561 ft 378 kts 321°
2026-05-06 11:54 30.73297 114.38737 32100 ft 430 kts 330°
2026-05-06 11:54 30.76289 114.37491 30350 ft 469 kts 343°
2026-05-06 11:55 30.79373 114.36770 30678 ft 440 kts 344°
2026-05-06 11:55 30.82556 114.36777 28493 ft 483 kts
2026-05-06 11:55 30.85769 114.38248 25941 ft 526 kts 27°
2026-05-06 11:55 30.88839 114.40758 24909 ft 534 kts 34°
2026-05-06 11:56 30.91740 114.43260 25050 ft 505 kts 34°
2026-05-06 11:56 30.94480 114.45648 25089 ft 481 kts 33°
2026-05-06 11:56 30.97203 114.47871 24303 ft 478 kts 30°
2026-05-06 11:56 31.00074 114.49907 22442 ft 496 kts 26°
2026-05-06 11:57 31.03258 114.51375 21363 ft 488 kts
2026-05-06 11:57 31.06564 114.51396 20496 ft 469 kts 343°
2026-05-06 11:57 31.09250 114.49630 19642 ft 436 kts 301°
2026-05-06 11:57 31.09671 114.46342 17206 ft 438 kts 247°
2026-05-06 11:58 31.08083 114.43506 17925 ft 395 kts 224°
2026-05-06 11:58 31.05674 114.42136 16315 ft 399 kts 188°
2026-05-06 11:58 31.02906 114.43182 13003 ft 471 kts 147°
2026-05-06 11:58 31.00044 114.45112 11837 ft 465 kts 163°
2026-05-06 11:59 30.97000 114.45658 11494 ft 429 kts 180°
2026-05-06 11:59 30.94147 114.44801 9990 ft 428 kts 215°
2026-05-06 11:59 30.92108 114.42453 9342 ft 408 kts 242°
2026-05-06 11:59 30.91506 114.39383 8858 ft 378 kts 265°
2026-05-06 12:00 30.92377 114.36405 5936 ft 431 kts 305°
2026-05-06 12:00 30.93477 114.33294 5564 ft 389 kts 264°
2026-05-06 12:00 30.92486 114.30850 6838 ft 322 kts 214°
2026-05-06 12:00 30.90341 114.30579 5544 ft 335 kts 158°
2026-05-06 12:01 30.88463 114.32564 2949 ft 392 kts 145°
2026-05-06 12:01 30.85948 114.33320 2772 ft 361 kts 186°
2026-05-06 12:01 30.83946 114.32079 2116 ft 349 kts 232°
2026-05-06 12:01 30.83149 114.29379 1359 ft 348 kts 255°
2026-05-06 12:02 30.82685 114.26699 1192 ft 329 kts 256°
2026-05-06 12:02 30.81678 114.24455 726 ft 317 kts 227°
2026-05-06 12:02 30.80117 114.22657 336 ft 312 kts 221°
2026-05-06 12:02 30.78553 114.21015 200 ft 281 kts 221°
2026-05-06 12:03 30.77174 114.19547 390 ft 255 kts 223°
2026-05-06 12:03 30.75987 114.18224 568 ft 214 kts 217°
2026-05-06 12:03 30.74792 114.18077 835 ft 167 kts 147°
2026-05-06 12:03 30.74214 114.19355 721 ft 207 kts 80°
2026-05-06 12:04 30.75025 114.20521 524 ft 197 kts 33°
2026-05-06 12:04 30.76132 114.21458 172 ft 190 kts 41°
2026-05-06 12:04 30.77029 114.22363 138 ft 152 kts 43°
2026-05-06 12:04 30.77686 114.23057 136 ft 89 kts 41°
2026-05-06 12:05 30.77954 114.23329 134 ft 33 kts 41°
2026-05-06 12:05 30.78117 114.23489 135 ft 24 kts 41°
2026-05-06 12:05 30.78203 114.23474 134 ft 15 kts 319°
2026-05-06 12:05 30.78275 114.23364 132 ft 19 kts 288°
2026-05-06 12:06 30.78227 114.23232 126 ft 19 kts 237°
2026-05-06 12:06 30.78123 114.23121 128 ft 22 kts 221°
2026-05-06 12:06 30.77990 114.22982 131 ft 37 kts 223°
2026-05-06 12:06 30.77715 114.22682 131 ft 71 kts 222°
2026-05-06 12:07 30.77426 114.22392 131 ft 5 kts 244°
2026-05-06 12:07 30.77428 114.22343 129 ft 8 kts 292°
2026-05-06 12:07 30.77474 114.22277 129 ft 14 kts 312°
2026-05-06 12:07 30.77559 114.22166 129 ft 22 kts 312°
2026-05-06 12:08 30.77673 114.22022 129 ft 26 kts 312°
2026-05-06 12:08 30.77799 114.21853 128 ft 29 kts 311°
2026-05-06 12:08 30.77937 114.21664 130 ft 32 kts 294°
2026-05-06 12:08 30.78009 114.21414 127 ft 34 kts 306°
2026-05-06 12:09 30.78185 114.21216 129 ft 36 kts 312°
2026-05-06 12:09 30.78252 114.20989 129 ft 20 kts 225°
2026-05-06 12:09 30.78143 114.20866 131 ft 24 kts 225°
2026-05-06 12:09 30.78013 114.20729 132 ft 27 kts 219°
2026-05-06 12:10 30.77870 114.20576 132 ft 30 kts 223°
2026-05-06 12:10 30.77707 114.20409 131 ft 33 kts 220°
2026-05-06 12:10 30.77608 114.20311 128 ft 14 kts 220°
2026-05-06 12:10 30.77548 114.20302 131 ft 8 kts 136°
2026-05-06 12:11 30.77563 114.20370 131 ft 12 kts 47°
2026-05-06 12:11 30.77633 114.20444 131 ft 15 kts 40°
2026-05-06 12:11 30.77714 114.20547 131 ft 19 kts 52°
2026-05-06 12:11 30.77740 114.20599 131 ft 0 kts 96°
2026-05-06 12:12 30.77735 114.20605 131 ft 2 kts 134°
2026-05-06 12:12 30.77712 114.20625 131 ft 6 kts 128°
2026-05-06 12:12 30.77703 114.20652 131 ft 0 kts 103°
2026-05-06 12:12 30.77702 114.20654 131 ft 1 kts 105°
2026-05-06 12:13 30.77701 114.20659 131 ft 0 kts 101°
2026-05-06 12:13 30.77701 114.20664 131 ft 0 kts 100°